Weather History for KJMR - October, 2013

Change the Weather History Date:

Tuesday, October 8, 2013

  Actual Average Record
Temperature  
Mean Temperature 54 °F -  
Max Temperature 73 °F 59 °F 82 °F (1966)
Min Temperature 35 °F 34 °F 17 °F (1986)
Degree Days  
Heating Degree Days 11    
Growing Degree Days 4 (Base 50)    
Moisture  
Dew Point 42 °F    
Average Humidity 62    
Maximum Humidity 100    
Minimum Humidity 33    
Precipitation  
Precipitation 0.00 in - - ()
Sea Level Pressure  
Sea Level Pressure 29.87 in    
Wind  
Wind Speed 6 mph (South)    
Max Wind Speed 20 mph    
Max Gust Speed 30 mph    
Visibility 10 miles    
Events      
Averages and records for this station are not official NWS values.
T = Trace of Precipitation, MM = Missing Value Source: NWS Daily Summary

Daily Weather History Graph

Daily Weather History Graph

Search for Another Location

Airport or City:

Trip Planner

Search our weather history database for the weather conditions in past years. The results will help you decide how hot, cold, wet, or windy it might be!

Date:

Astronomy

Oct. 08, 2013 Rise Set
Actual Time 7:20 AM CDT 6:39 PM CDT
Civil Twilight 6:51 AM CDT 7:09 PM CDT
Nautical Twilight 6:16 AM CDT 7:43 PM CDT
Astronomical Twilight 5:41 AM CDT 8:18 PM CDT
Moon 11:27 AM CDT (10/8) 9:04 PM CDT (10/8)
Length of Visible Light 12h 18m
Length of Day
11h 18m
Waxing Crescent, 16% of the Moon is Illuminated
Oct 8
Waxing Crescent
Oct 11
First Quarter
Oct 18
Full
Oct 26
Last Quarter
Nov 3
New

Hourly Weather History & Observations

Time (CDT) Temp. Windchill Dew Point Humidity Pressure Visibility Wind Dir Wind Speed Gust Speed Precip Events Conditions
12:05 AM 37.4 °F - 35.6 °F 93% 29.97 in 10.0 mi Calm Calm - N/A   Clear
12:25 AM 37.4 °F - 35.6 °F 93% 29.97 in 7.0 mi Calm Calm - N/A   Clear
12:45 AM 37.4 °F - 35.6 °F 93% 29.97 in 10.0 mi Calm Calm - N/A   Clear
1:05 AM 37.4 °F - 35.6 °F 93% 29.97 in 10.0 mi Calm Calm - N/A   Clear
1:25 AM 35.6 °F - 35.6 °F 100% 29.97 in 10.0 mi Calm Calm - N/A   Clear
1:45 AM 35.6 °F - 35.6 °F 100% 29.97 in 10.0 mi Calm Calm - N/A   Clear
2:05 AM 35.6 °F - 35.6 °F 100% 29.97 in 10.0 mi Calm Calm - N/A   Clear
2:25 AM 35.6 °F - 35.6 °F 100% 29.96 in 10.0 mi Calm Calm - N/A   Clear
2:45 AM 35.6 °F - 35.6 °F 100% 29.95 in 10.0 mi Calm Calm - N/A   Clear
3:05 AM 35.6 °F - 35.6 °F 100% 29.94 in 10.0 mi Calm Calm - N/A   Clear
3:25 AM 35.6 °F - 35.6 °F 100% 29.94 in 10.0 mi Calm Calm - N/A   Clear
3:45 AM 39.2 °F - 37.4 °F 93% 29.94 in 10.0 mi Calm Calm - N/A   Clear
4:05 AM 41.0 °F 39.0 °F 39.2 °F 93% 29.94 in 10.0 mi SE 3.5 mph - N/A   Clear
4:25 AM 41.0 °F - 41.0 °F 100% 29.93 in 10.0 mi Calm Calm - N/A   Clear
4:45 AM 42.8 °F 41.1 °F 41.0 °F 93% 29.93 in 10.0 mi SE 3.5 mph - N/A   Clear
5:05 AM 44.6 °F - 41.0 °F 87% 29.92 in 10.0 mi Calm Calm - N/A   Clear
5:25 AM 46.4 °F - 41.0 °F 81% 29.92 in 10.0 mi Calm Calm - N/A   Clear
5:45 AM 46.4 °F 45.2 °F 41.0 °F 81% 29.92 in 10.0 mi SE 3.5 mph - N/A   Clear
6:05 AM 46.4 °F 45.2 °F 41.0 °F 81% 29.92 in 10.0 mi SE 3.5 mph - N/A   Clear
6:25 AM 46.4 °F 44.3 °F 41.0 °F 81% 29.91 in 10.0 mi SE 4.6 mph - N/A   Clear
7:05 AM 46.4 °F 44.3 °F 41.0 °F 81% 29.90 in 10.0 mi SE 4.6 mph - N/A   Clear
7:25 AM 46.4 °F 43.5 °F 41.0 °F 81% 29.90 in 10.0 mi SE 5.8 mph - N/A   Clear
7:45 AM 48.2 °F - 41.0 °F 76% 29.90 in 10.0 mi SSE 4.6 mph - N/A   Clear
8:05 AM 48.2 °F - 41.0 °F 76% 29.90 in 10.0 mi SSE 5.8 mph - N/A   Clear
8:25 AM 51.8 °F - 42.8 °F 71% 29.89 in 10.0 mi SSE 5.8 mph - N/A   Clear
8:45 AM 51.8 °F - 41.0 °F 67% 29.88 in 10.0 mi SSE 8.1 mph - N/A   Clear
9:05 AM 53.6 °F - 42.8 °F 67% 29.88 in 10.0 mi SSE 9.2 mph - N/A   Clear
9:25 AM 55.4 °F - 44.6 °F 67% 29.88 in 10.0 mi SSE 9.2 mph 16.1 mph N/A   Clear
9:57 AM 57.2 °F - 42.8 °F 59% 29.88 in 10.0 mi South 11.5 mph - N/A   Clear
10:14 AM 59.0 °F - 42.8 °F 55% 29.87 in 10.0 mi South 10.4 mph 17.3 mph N/A   Clear
10:34 AM 60.8 °F - 42.8 °F 52% 29.87 in 10.0 mi South 11.5 mph 18.4 mph N/A   Clear
10:54 AM 62.6 °F - 44.6 °F 52% 29.86 in 10.0 mi SSE 11.5 mph 16.1 mph N/A   Clear
11:14 AM 64.4 °F - 46.4 °F 52% 29.85 in 10.0 mi SSE 10.4 mph - N/A   Clear
11:34 AM 64.4 °F - 44.6 °F 49% 29.85 in 10.0 mi South 11.5 mph 17.3 mph N/A   Clear
11:54 AM 68.0 °F - 44.6 °F 43% 29.85 in 10.0 mi South 12.7 mph 19.6 mph N/A   Clear
12:14 PM 68.0 °F - 44.6 °F 43% 29.84 in 10.0 mi South 15.0 mph 21.9 mph N/A   Clear
12:34 PM 69.8 °F - 46.4 °F 43% 29.84 in 10.0 mi South 13.8 mph 20.7 mph N/A   Clear
12:54 PM 69.8 °F - 44.6 °F 40% 29.83 in 10.0 mi South 15.0 mph 24.2 mph N/A   Clear
1:14 PM 69.8 °F - 44.6 °F 40% 29.82 in 10.0 mi South 17.3 mph 24.2 mph N/A   Clear
1:34 PM 71.6 °F - 44.6 °F 38% 29.81 in 10.0 mi South 18.4 mph 23.0 mph N/A   Clear
1:54 PM 73.4 °F - 44.6 °F 36% 29.81 in 10.0 mi South 16.1 mph 25.3 mph N/A   Clear
2:14 PM 71.6 °F - 42.8 °F 35% 29.80 in 10.0 mi South 19.6 mph 27.6 mph N/A   Clear
2:34 PM 73.4 °F - 42.8 °F 33% 29.80 in 10.0 mi South 19.6 mph 27.6 mph N/A   Clear
2:54 PM 73.4 °F - 42.8 °F 33% 29.79 in 10.0 mi South 16.1 mph 29.9 mph N/A   Clear
3:14 PM 73.4 °F - 44.6 °F 36% 29.79 in 10.0 mi South 15.0 mph 29.9 mph N/A   Clear
3:34 PM 71.6 °F - 44.6 °F 38% 29.79 in 10.0 mi South 19.6 mph 25.3 mph N/A   Clear
3:54 PM 73.4 °F - 42.8 °F 33% 29.80 in 10.0 mi South 19.6 mph 28.8 mph N/A   Clear
4:14 PM 71.6 °F - 44.6 °F 38% 29.80 in 10.0 mi South 16.1 mph 26.5 mph N/A   Clear
4:34 PM 71.6 °F - 42.8 °F 35% 29.80 in 10.0 mi SSW 18.4 mph 24.2 mph N/A   Clear
4:55 PM 69.8 °F - 42.8 °F 38% 29.80 in 10.0 mi South 13.8 mph 24.2 mph N/A   Clear
5:14 PM 69.8 °F - 42.8 °F 38% 29.80 in 10.0 mi South 12.7 mph 17.3 mph N/A   Clear
5:34 PM 69.8 °F - 44.6 °F 40% 29.80 in 10.0 mi South 9.2 mph - N/A   Clear
5:54 PM 69.8 °F - 44.6 °F 40% 29.80 in 10.0 mi South 10.4 mph - N/A   Clear
6:14 PM 69.8 °F - 44.6 °F 40% 29.81 in 10.0 mi South 10.4 mph - N/A   Clear
6:34 PM 68.0 °F - 42.8 °F 40% 29.81 in 10.0 mi South 11.5 mph 16.1 mph N/A   Clear
6:54 PM 66.2 °F - 42.8 °F 43% 29.81 in 10.0 mi South 8.1 mph - N/A   Clear
7:15 PM 64.4 °F - 42.8 °F 45% 29.83 in 10.0 mi South 8.1 mph - N/A   Clear
7:34 PM 64.4 °F - 44.6 °F 49% 29.84 in 10.0 mi South 5.8 mph - N/A   Clear
7:55 PM 64.4 °F - 44.6 °F 49% 29.85 in 10.0 mi South 5.8 mph - N/A   Clear
8:14 PM 62.6 °F - 42.8 °F 48% 29.85 in 10.0 mi SSE 4.6 mph - N/A   Clear
8:34 PM 62.6 °F - 42.8 °F 48% 29.86 in 10.0 mi SSE 3.5 mph - N/A   Clear
8:54 PM 60.8 °F - 42.8 °F 52% 29.86 in 10.0 mi SSE 4.6 mph - N/A   Clear
9:14 PM 60.8 °F - 42.8 °F 52% 29.87 in 10.0 mi SSE 4.6 mph - N/A   Clear
9:35 PM 59.0 °F - 42.8 °F 55% 29.87 in 10.0 mi South 6.9 mph - N/A   Clear
9:54 PM 60.8 °F - 42.8 °F 52% 29.87 in 10.0 mi South 10.4 mph - N/A   Clear
10:14 PM 60.8 °F - 42.8 °F 52% 29.87 in 10.0 mi South 9.2 mph - N/A   Clear
10:35 PM 60.8 °F - 42.8 °F 52% 29.88 in 10.0 mi South 12.7 mph 19.6 mph N/A   Clear
10:54 PM 62.6 °F - 44.6 °F 52% 29.89 in 10.0 mi South 11.5 mph 18.4 mph N/A   Clear
11:14 PM 62.6 °F - 44.6 °F 52% 29.89 in 10.0 mi South 12.7 mph - N/A   Clear
11:35 PM 62.6 °F - 44.6 °F 52% 29.90 in 10.0 mi South 13.8 mph - N/A   Clear
11:54 PM 62.6 °F - 44.6 °F 52% 29.90 in 10.0 mi South 12.7 mph 18.4 mph N/A   Clear